Location: Smithers
(54.7670°N, 127.1670°W)
Time: 23:49:13
(UTC-07:00)

Daily predictions for brighter satellites

Satellite Brightness Start Highest point End
(mag) Time Altitude Azimuth Time Altitude Azimuth Time Altitude Azimuth
BREEZE-M DEB (TANK) 3.5 19:42:49 10° WSW 19:45:52 45° SSE 19:54:35 10° E
Cosmos 1340 Rocket 3.2 19:50:21 10° NNW 19:54:25 72° WSW 19:58:28 10° S
SPOT 3 Rocket 4.5 19:49:42 10° S 19:54:45 55° WSW 19:59:52 10° NNW
Cosmos 1939 Rocket 4.4 19:53:10 10° E 19:55:51 18° ENE 19:58:35 10° NNE
Cosmos 2237 Rocket 4.3 19:53:10 10° W 19:57:42 24° NNW 20:02:17 10° NNE
Meteor 1-15 Rocket 4.3 19:52:59 10° S 19:58:52 83° ESE 20:04:41 10° NNE
Cosmos 1814 Rocket 4.2 19:59:03 10° S 20:03:57 46° ESE 20:08:52 10° NE
Cosmos 1709 Rocket 4.1 19:58:23 10° S 20:04:46 80° E 20:11:11 10° NNE
Cosmos 2219 Rocket 4.5 20:01:27 10° WNW 20:05:19 18° NNW 20:09:11 10° NNE
Cosmos 1125 Rocket 3.7 20:00:04 10° NNW 20:05:19 59° ENE 20:10:34 10° SE
Cosmos 1943 3.3 20:00:45 10° SSW 20:06:27 88° ESE 20:12:13 10° NNE
GP-B 4.2 20:06:02 10° NNE 20:09:46 25° ENE 20:13:28 10° SE
Cosmos 2228 3.2 20:07:20 10° SSE 20:11:32 48° E 20:15:43 10° NNE
SKYMED 2 4.0 20:07:47 10° NNE 20:12:08 70° WNW 20:16:27 10° SSW
Resurs 01 Rocket 2.0 20:08:20 10° SE 20:12:32 44° ENE 20:16:45 10° N
Cosmos 372 Rocket 4.1 20:08:52 10° NNW 20:14:05 61° ENE 20:19:18 10° SE
CZ-2D R/B 3.5 20:11:09 10° SE 20:14:50 49° ENE 20:18:34 10° N
USA 81 4.1 20:10:15 10° N 20:15:35 88° W 20:20:53 10° S
USA 186 2.4 20:14:11 11° ESE 20:16:03 22° ENE 20:17:59 10° NNE
Nadezhda 3 Rocket 4.4 20:11:02 10° N 20:17:05 45° ENE 20:23:04 10° SE
Cosmos 1953 Rocket 4.4 20:12:49 10° NNW 20:17:05 55° W 20:21:19 10° S
Envisat 3.3 20:17:12 10° SE 20:22:03 47° ENE 20:26:56 10° N
Cosmos 1606 Rocket 3.6 20:17:51 10° SSW 20:22:12 83° WNW 20:26:33 10° N
Cosmos 2278 4.3 20:17:50 10° NNW 20:23:13 41° NE 20:28:04 13° ESE
Cosmos 389 Rocket 2.7 20:21:03 10° SSW 20:24:32 72° WNW 20:28:01 10° N
Cosmos 2058 Rocket 3.0 20:21:41 10° S 20:26:02 70° E 20:30:25 10° NNE
Cosmos 1356 Rocket 3.6 20:21:56 10° NNW 20:26:15 81° WSW 20:30:33 10° S
Cosmos 304 Rocket 4.1 20:22:37 10° S 20:27:07 43° ESE 20:31:41 10° NE
Meteor 2-8 Rocket 4.4 20:23:23 10° N 20:29:33 69° ENE 20:35:38 10° SSE
Meteor 1-24 Rocket 3.9 20:24:39 10° NNW 20:30:44 89° W 20:36:37 10° SSE
Cosmos 1943 Rocket 4.5 20:28:10 10° NW 20:32:40 25° WSW 20:37:09 10° SSW
SJ-6B 3.2 20:28:53 10° S 20:32:51 67° WSW 20:36:46 10° NNW
H-2A R/B 3.8 20:30:21 11° ENE 20:32:55 15° NE 20:35:44 10° NNE
Cosmos 2184 Rocket 4.1 20:27:23 10° S 20:33:35 60° E 20:39:51 10° NNE
Cosmos 1953 3.7 20:34:06 15° ESE 20:35:59 20° E 20:38:57 10° NE
Cosmos 2322 Rocket 4.0 20:32:34 10° NNW 20:36:28 19° NNE 20:40:22 10° ENE
Okean 3 Rocket 4.3 20:33:24 10° N 20:37:31 34° ENE 20:40:41 15° SE
Cosmos 841 Rocket 3.5 20:36:05 10° S 20:41:08 60° ESE 20:46:13 10° NNE
Cosmos 468 Rocket 4.3 20:36:29 10° SW 20:41:43 73° WNW 20:47:02 10° NNE
BREEZE-M DEB (TANK) 3.0 20:41:14 10° WSW 20:43:05 19° SSW 20:43:56 15° SSE
ATLAS 2AS CENTAUR R/B 3.2 20:35:55 10° NW 20:44:05 68° NNE 20:50:23 17° ESE
ALOS 4.2 20:40:58 10° SSW 20:45:10 32° W 20:49:24 10° NNW
Cosmos 2360 Rocket 4.3 20:41:58 10° NNW 20:45:23 16° N 20:48:48 10° NE
OPS 8737 4.4 20:42:08 10° SSW 20:45:31 55° SE 20:48:47 10° NE
HJ-1C 4.4 20:42:32 10° S 20:45:48 48° W 20:49:05 10° NNW
Cosmos 1697 Rocket 3.4 20:42:34 10° NNW 20:47:55 39° NE 20:51:34 19° ESE
Cosmos 1980 Rocket 3.3 20:43:45 10° NNW 20:48:42 30° NE 20:52:11 17° E
BREEZE M DEB (TANK) 3.1 20:44:10 10° WSW 20:49:40 35° S 20:51:01 23° SE
H-2A R/B 4.2 20:47:17 10° SSW 20:50:49 39° W 20:54:25 10° NNW
Cosmos 1656 4.0 20:47:26 10° NNW 20:53:02 51° NE 20:56:47 20° ESE
Cosmos 2327 Rocket 4.4 20:48:42 10° S 20:54:47 75° E 21:00:53 10° NNE
NOSS 3-4 (A) 4.4 20:49:21 10° WNW 20:55:42 44° NNE 21:01:16 15° E
NOSS 3-4 (C) 4.4 20:49:27 10° WNW 20:55:48 44° NNE 21:01:22 15° E
Helios 1A 3.7 20:53:58 22° ESE 20:55:58 35° ENE 20:59:47 10° N
SJ-11-01 4.4 20:53:27 14° SE 20:57:24 59° ENE 21:02:05 10° N
Cosmos 1763 Rocket 3.6 20:56:04 10° SSW 21:01:12 81° WNW 21:06:28 10° NNE
Cosmos 540 Rocket 3.6 20:56:25 10° S 21:01:19 48° ESE 21:06:14 10° NE
Cosmos 2084 Rocket 3.7 21:00:07 10° NW 21:03:54 46° NNE 21:05:36 27° E
Terra 3.9 21:03:52 11° ENE 21:05:06 12° NE 21:07:03 10° NNE
Cosmos 1766 3.3 21:05:28 10° SSW 21:09:23 84° W 21:13:19 10° N
Thor Agena Rocket 4.4 21:07:55 10° N 21:13:04 53° WNW 21:18:08 10° SW
SL-16 R/B 3.7 21:09:25 10° NNW 21:13:57 24° NNE 21:17:02 16° ENE
Meteor 1-22 Rocket 4.3 21:12:51 10° SSW 21:18:31 80° WNW 21:23:59 10° NNE
Cosmos 1758 3.3 21:16:01 16° S 21:19:03 55° E 21:22:59 10° NNE
YAOGAN 6 2.5 21:18:13 33° SSE 21:19:41 73° ENE 21:23:20 10° N
Cosmos 1674 2.6 21:18:13 10° NNW 21:22:00 82° W 21:24:10 24° S
USA 267 3.4 21:16:59 18° E 21:22:03 74° N 21:28:36 10° W
COSMOS 2406 3.1 21:18:30 10° SSW 21:24:11 71° ESE 21:29:56 10° NE
Cosmos 1626 3.9 21:22:01 10° NNE 21:24:17 19° NE 21:24:17 19° NE
Cosmos 1544 3.4 21:21:57 10° SSW 21:25:32 64° WNW 21:29:09 10° N
NOAA 11 4.2 21:22:54 27° SE 21:25:48 60° ENE 21:31:10 10° N
ARGOS 3.6 21:24:15 30° ESE 21:26:19 43° ENE 21:31:27 10° N
Meteor 1-21 Rocket 4.3 21:22:19 10° NNW 21:28:09 83° WSW 21:33:01 14° S
Spot 2 Rocket 4.2 21:23:47 10° S 21:28:42 53° W 21:33:40 10° NNW
MetOp-A 4.4 21:27:19 32° ESE 21:29:32 52° ENE 21:34:44 10° N
Cosmos 1939 Rocket 3.0 21:27:51 21° S 21:30:22 69° WSW 21:34:21 10° NNW
Cosmos 1076 Rocket 3.4 21:26:17 10° N 21:30:40 79° ENE 21:32:37 33° SSE
Cosmos 2369 3.7 21:26:59 10° NW 21:32:41 84° WSW 21:35:47 28° SSE
SPOT 5 3.5 21:32:35 31° ENE 21:33:05 32° ENE 21:37:04 10° N
Cosmos 836 Rocket 4.4 21:28:30 10° SSW 21:33:48 84° ESE 21:39:05 10° NNE
Cosmos 2084 3.1 21:29:53 10° SW 21:33:51 88° NW 21:35:53 27° NE
CZ-4B DEB 4.0 21:36:09 27° NNE 21:36:09 27° NNE 21:37:43 10° N
H-2A R/B 4.5 21:35:56 10° NE 21:36:17 11° NE 21:37:12 10° NE
Cosmos 1818 3.8 21:30:54 10° NW 21:36:19 60° NE 21:38:24 36° E
SPOT 1/Viking Rocket 4.3 21:37:11 31° E 21:38:13 34° ENE 21:42:51 10° N
Cosmos 2154 Rocket 4.0 21:32:24 10° S 21:38:39 89° WNW 21:45:00 10° N
Spot 1 3.9 21:38:27 48° SE 21:39:29 68° ENE 21:43:36 10° NNW
Cosmos 1805 3.7 21:40:19 10° SSW 21:44:11 61° WNW 21:48:04 10° N
Cosmos 1733 3.2 21:46:12 59° ENE 21:46:12 59° ENE 21:49:40 10° NNE
Cosmos 2058 4.1 21:42:24 10° N 21:45:38 28° NE 21:45:38 28° NE
Cosmos 783 Rocket 4.4 21:41:36 10° S 21:46:43 62° ESE 21:51:52 10° NNE
USA 186 4.0 21:45:47 12° SW 21:46:54 16° W 21:48:28 10° NW
GP-B 4.1 21:43:03 10° N 21:47:20 48° W 21:51:36 10° SSW
Resurs 01 Rocket 3.5 21:45:19 10° SSW 21:49:11 29° W 21:53:04 10° NNW
Cosmos 2341 Rocket 3.9 21:43:12 10° S 21:49:24 82° E 21:55:41 10° NNE
Cosmos 2219 Rocket 4.5 21:48:13 10° NNW 21:51:34 16° N 21:54:56 10° NE
ERS-1 Rocket 2.9 21:51:53 45° SE 21:53:24 77° ENE 21:58:28 10° NNW
Cosmos 1408 Rocket 3.4 21:49:12 10° N 21:53:33 79° ENE 21:54:12 63° SE
Cosmos 2360 4.4 21:49:15 10° NNW 21:54:54 57° NE 21:56:25 44° E
Cosmos 292 Rocket 3.6 21:58:27 26° S 22:01:09 71° ESE 22:06:01 10° NNE
Cosmos 1470 2.7 22:01:58 80° NE 22:01:58 80° NE 22:05:49 10° NNE
Cosmos 2278 4.2 22:02:03 10° NW 22:07:34 53° WSW 22:09:59 32° S
Cosmos 2082 Rocket 3.7 22:12:36 21° ENE 22:12:36 21° ENE 22:14:43 10° NE
Cosmos 1959 Rocket 4.4 22:07:48 41° SSE 22:10:00 67° E 22:16:15 10° NNE
H-2A R/B 1.9 22:11:00 60° E 22:11:25 63° ENE 22:16:28 10° N
Cosmos 1953 3.0 22:09:46 23° SW 22:12:04 54° WNW 22:16:05 10° N
SL-27 R/B 3.9 22:14:27 32° NNE 22:14:27 32° NNE 22:16:37 10° NNE
Cosmos 2366 rocket 3.9 22:13:28 46° SSE 22:15:17 66° E 22:21:31 10° NNE
Cosmos-2242 3.7 22:17:19 44° NE 22:17:19 44° NE 22:20:26 10° NNE
Cosmos 1703 4.3 22:12:43 10° N 22:15:30 37° NNE 22:15:30 37° NNE
Cosmos 2218 Rocket 3.8 22:15:24 42° S 22:17:39 74° E 22:23:51 10° NNE
Cosmos 2285 Rocket 3.9 22:15:27 31° S 22:18:38 66° ESE 22:25:03 10° NNE
Cosmos 2151 3.5 22:15:23 10° N 22:18:52 49° NNE 22:18:52 49° NNE
Cosmos 1766 Rocket 4.0 22:16:19 10° NNW 22:20:36 55° W 22:21:17 49° SW
Meteor 2-21 4.4 22:17:34 24° SSW 22:21:32 86° W 22:27:42 10° NNE
Cosmos 1743 Rocket 3.7 22:17:17 10° N 22:21:08 66° NNE 22:21:08 66° NNE
Cosmos 2322 Rocket 2.8 22:16:41 10° NNW 22:22:04 43° NE 22:22:47 41° ENE
MetOp-B 4.2 22:22:16 50° S 22:23:39 72° WSW 22:29:02 10° NNW
SL-08 R/B 4.4 22:23:03 51° SSE 22:24:40 72° E 22:30:55 10° NNE
Landsat 7 4.2 22:27:01 51° NE 22:27:01 51° NE 22:31:12 10° N
SL-14 R/B 4.0 22:23:20 10° NNW 22:27:05 48° W 22:27:05 48° W
Helios 1B rocket 3.2 22:24:26 10° NNE 22:27:22 45° NNE 22:27:22 45° NNE
Cosmos 1328 4.3 22:24:39 10° NNW 22:28:22 58° WNW 22:28:22 58° WNW
Cosmos 2360 Rocket 3.4 22:26:23 10° NNW 22:31:18 29° NE 22:32:19 28° NE
Helios 1A 4.3 22:30:37 30° SW 22:31:33 34° W 22:35:24 10° NNW
Cosmos 1697 Rocket 3.1 22:26:36 10° NW 22:32:10 58° WSW 22:33:18 48° SSW
Cosmos 1980 Rocket 2.0 22:27:40 10° NW 22:33:21 83° WSW 22:33:57 72° S
Iridium 4 Rocket 3.4 22:35:17 64° NNE 22:35:17 64° NNE 22:39:34 10° N
ATLAS 2AS CENTAUR R/B 3.5 22:27:19 10° NW 22:35:05 52° SW 22:37:50 37° S
Cosmos 1727 Rocket 4.1 22:31:32 10° NNW 22:37:49 73° W 22:39:42 47° SSW
Cosmos 1400 Rocket 3.8 22:35:05 10° NNW 22:38:00 44° N 22:38:00 44° N
Cosmos 1371 Rocket 4.1 22:34:47 10° NNW 22:39:56 63° NE 22:39:56 63° NE
Terra 2.5 22:42:45 46° NNE 22:42:45 46° NNE 22:46:32 10° N
SL-8 Rocket 4.2 22:40:30 27° SSW 22:43:58 68° WNW 22:50:09 10° N
SL-08 RB Rocket 4.0 22:45:21 61° WNW 22:45:21 61° WNW 22:49:30 10° NNW
Cosmos 1624 Rocket 4.3 22:40:01 10° NNW 22:44:46 57° NE 22:44:46 57° NE
COSMOS 2428 4.3 22:42:26 10° NNW 22:47:01 24° NNE 22:48:26 22° NE
NOSS 3-4 (A) 3.7 22:40:36 10° NW 22:47:26 83° NE 22:48:42 63° ESE
NOSS 3-4 (C) 3.7 22:40:42 10° NW 22:47:32 82° NE 22:48:48 63° ESE
Cosmos 1538 Rocket 4.3 22:49:21 58° NNE 22:49:21 58° NNE 22:53:34 10° NNE
Cosmos 1241 Rocket 4.3 22:43:46 10° NW 22:50:08 79° NE 22:50:38 74° E
Cosmos 1500 Rocket 4.2 22:48:10 10° NNW 22:51:45 54° NW 22:51:45 54° NW
Cosmos 2333 Rocket 4.2 22:49:29 10° NNW 22:53:38 20° NNE 22:55:52 16° NE
SL-16 R/B 2.3 22:53:27 10° NNW 22:58:53 66° NE 22:58:53 66° NE
Cosmos 1821 Rocket 4.5 23:01:42 44° NE 23:01:42 44° NE 23:06:21 10° NNE
Cosmos 1626 4.1 22:56:51 10° NNW 22:58:55 29° NW 22:58:55 29° NW
USA 267 3.1 23:04:20 73° ESE 23:05:03 89° SSW 23:11:39 10° WNW
ARGOS 4.1 23:05:46 38° WSW 23:06:39 41° W 23:11:47 10° NNW
Cosmos 1000 Rocket 4.4 23:01:51 10° NNW 23:08:14 85° W 23:08:30 81° SSW
Cosmos 2123 Rocket 4.1 23:03:01 10° N 23:08:45 63° NE 23:08:45 63° NE
SPOT 5 3.9 23:11:50 37° WNW 23:11:50 37° WNW 23:15:21 10° NNW
H-2A R/B 3.7 23:13:03 31° NNE 23:13:03 31° NNE 23:15:36 10° N
SPOT 1/Viking Rocket 4.2 23:17:50 49° W 23:17:50 49° W 23:22:32 10° NNW
Cosmos 2056 Rocket 4.1 23:22:32 10° NNW 23:26:56 58° NW 23:26:56 58° NW
Cosmos 2237 Rocket 4.1 23:25:52 10° NNW 23:30:13 22° NNE 23:31:46 19° NE
CZ-2C R/B 4.1 23:31:38 41° NNE 23:31:38 41° NNE 23:36:02 10° N
Cosmos 1833 Rocket 3.4 23:34:54 48° NNE 23:34:54 48° NNE 23:38:58 10° NNE
Cosmos 2219 Rocket 3.6 23:32:39 10° NNW 23:37:29 28° NE 23:37:40 28° NE
Cosmos 2322 4.4 23:39:28 10° NNW 23:44:07 50° N 23:44:07 50° N
Cosmos 1452 Rocket 4.5 23:42:55 10° NNW 23:46:33 44° NNW 23:46:33 44° NNW
H-2A R/B 3.7 23:51:38 25° W 23:51:38 25° W 23:55:27 10° NW
Cosmos 1934 Rocket 4.3 23:53:45 61° NNE 23:53:45 61° NNE 23:58:53 10° NNE
Cosmos 2082 Rocket 2.9 23:54:25 51° NNW 23:54:25 51° NNW 23:59:08 10° NNE
